Location: Innsbruck
(47.2657°N, 11.3914°E)
Time: 18:55:40
(UTC+01:00)

ISS - Visible Passes

Search period start: 14 December 2025 00:00
Search period end: 24 December 2025 00:00
Orbit: 416 x 420 km, 51.6° (Epoch: 13 December)

Date Brightness Start Highest point End Pass type
(mag) Time Alt. Az. Time Alt. Az. Time Alt. Az.
14 Dec -1.8 06:26:03 10° SSW 06:29:03 30° SE 06:32:04 10° E visible
15 Dec -1.2 05:38:48 11° S 05:41:13 20° SE 05:43:44 10° E visible
15 Dec -3.8 07:14:16 10° WSW 07:17:39 83° NNW 07:21:03 10° ENE visible
16 Dec -0.6 04:53:43 12° SE 04:53:43 12° SE 04:54:55 10° ESE visible
16 Dec -3.5 06:26:42 13° SW 06:29:38 68° SSE 06:33:00 10° ENE visible
17 Dec -2.9 05:41:17 43° SSE 05:41:38 45° SSE 05:44:53 10° ENE visible
17 Dec -3.4 07:15:08 10° W 07:18:26 49° NNW 07:21:44 10° ENE visible
18 Dec -0.8 04:55:37 17° E 04:55:37 17° E 04:56:39 10° E visible
18 Dec -3.7 06:28:35 26° W 06:30:17 63° NNW 06:33:38 10° ENE visible
19 Dec -3.3 05:42:44 58° ENE 05:42:44 58° ENE 05:45:33 10° ENE visible
19 Dec -3.0 07:16:00 10° WNW 07:19:12 38° N 07:22:24 10° ENE visible
20 Dec -0.7 04:56:46 15° ENE 04:56:46 15° ENE 04:57:25 10° ENE visible
20 Dec -3.2 06:29:41 28° WNW 06:30:58 42° N 06:34:13 10° ENE visible
21 Dec -2.7 05:43:36 38° NNE 05:43:36 38° NNE 05:46:03 10° ENE visible
21 Dec -3.0 07:16:43 10° WNW 07:19:55 38° N 07:23:06 10° ENE visible
22 Dec -0.6 04:57:26 13° ENE 04:57:26 13° ENE 04:57:52 10° ENE visible
22 Dec -2.9 06:30:21 26° NW 06:31:38 37° N 06:34:48 10° ENE visible
23 Dec -2.4 05:44:07 32° NNE 05:44:07 32° NNE 05:46:31 10° ENE visible
23 Dec -3.3 07:17:12 10° WNW 07:20:29 50° NNE 07:23:47 10° E visible
